Weather Roundup
Issued by NWS Springfield, MO

Home | Current Version | Previous Version | Text Only | Print | Product List | Glossary On
Versions: 1 2 3 4 5 6 7 8 9 10 11 12 13 14 15 16 17 18 19 20 21 22 23 24 25 26 27 28 29 30 31 32 33 34 35 36 37 38 39 40 41 42 43 44 45 46 47 48 49 50
000
NZUS99 KSGF 091607
HRRSGF

HOURLY WEATHER
NATIONAL WEATHER SERVICE SPRINGFIELD MO
1000 AM CST TUE FEB 09 2016

......SGF CWA......

CITY           SKY/WX    TMP DP  RH WIND       PRES   REMARKS
SPRINGFIELD    MOSUNNY   28   9  44 NW28G35   30.07R WCI  13
JOPLIN         SUNNY     32  10  40 N21G28    30.18R WCI  20
WEST PLAINS    CLOUDY    24   9  52 NW20G26   30.01R WCI  10
ROLLA          FLURRIES  19  10  68 NW17      30.01R WCI   4
OSAGE BEACH    CLOUDY    21   7  53 NW12G22   30.09R WCI   9
BRANSON        MOSUNNY   32   3  29 NW17G28   30.06R WCI  21

......SURROUNDING SGF CWA......

CITY           SKY/WX    TMP DP  RH WIND       PRES   REMARKS
CHANUTE        SUNNY     32  11  41 NW18G26   30.20R WCI  20
PARSONS        SUNNY     34  10  37 NW22G31   30.21R WCI  22
COFFEYVILLE    SUNNY     35   9  33 N23G32    30.22R WCI  23
EMPORIA        SUNNY     29   5  36 N24G33    30.21R WCI  15
GROVE OK       SUNNY     36  14  41 NW21G28   30.20R WCI  24
ROGERS AR      SUNNY     33  14  45 NW20G28   30.11R WCI  21
SILOAM SPRINGS SUNNY     34  12  40 NW25G33   30.14S WCI  21
HARRISON AR    SUNNY     33  12  41 NW18G28   30.05R WCI  22
NEAR YELLVILLE SUNNY    N/A N/A N/A NW24G36   30.02R

......KANSAS AND MISSOURI......

CITY           SKY/WX    TMP DP  RH WIND       PRES   REMARKS
KANSAS CTY INT MOSUNNY   20   8  60 N18G28    30.17R WCI   5
DOWNTOWN KC    SUNNY     22   8  55 NW14G23   30.19R WCI   9
COLUMBIA       CLOUDY    19   7  59 NW18      30.07R WCI   4
SEDALIA        CLOUDY    20   8  60 NW22G30   30.14R WCI   3
ST JOSEPH      MOSUNNY   20   7  57 N20G30    30.21R WCI   4
ST LOUIS       LGT SNOW  19  12  73 NW15G23   30.00R WCI   5
SPIRIT OF STL  CLOUDY    20   9  62 NW18G25   30.02R WCI   5
KIRKSVILLE     FLURRIES  17   5  59 NW16G25   30.06R WCI   2
WICHITA        PTSUNNY   35  19  52 N22G28    30.26R WCI  23
TOPEKA         SUNNY     27   5  39 NW22G33   30.23R WCI  13
OLATHE         MOSUNNY   21   8  57 N17G29    30.17R WCI   7

......TENNESSEE......

CITY           SKY/WX    TMP DP  RH WIND       PRES   REMARKS
MEMPHIS        PTSUNNY   35  15  44 NW18G25   29.99F WCI  24
NASHVILLE      LGT SNOW  26  20  77 NW6       29.91S VSB 1   WCI  19

......ARKANSAS.......

CITY           SKY/WX    TMP DP  RH WIND       PRES   REMARKS
FAYETTEVILLE   SUNNY     34  15  46 NW20G31   30.12R WCI  23
FT SMITH       SUNNY     41  14  33 NW20G25   30.17R
LITTLE ROCK    MOSUNNY   42  18  37 NW25G31   30.07S

......OKLAHOMA.......

CITY           SKY/WX    TMP DP  RH WIND       PRES   REMARKS
TULSA          MOSUNNY   40  19  43 NW21G33   30.23S WCI  30
PONCA CITY     CLOUDY    39  20  46 N13G23    30.27R WCI  31
MCALESTER      CLOUDY    43  18  36 N17G28    30.25S
OKLAHOMA CITY  MOSUNNY   48  11  22 N21G26    30.27R

......IOWA............

CITY           SKY/WX    TMP DP  RH WIND       PRES   REMARKS
DES MOINES     MOSUNNY   11   2  67 NW18G26   30.13R WCI  -7
QUAD CITIES    CLOUDY    16   5  62 NW22G28   29.96R WCI  -2

......ILLINOIS........

CITY           SKY/WX    TMP DP  RH WIND       PRES   REMARKS
QUINCY         LGT SNOW  15   8  73 NW23G32   30.01R WCI  -3
CHICAGO        LGT SNOW  15   8  73 NW15      29.83R WCI   0



USA.gov is the U.S. government's official web portal to all federal, state and local government web resources and services.